Simultaneous Nadir Overpasses (SNOs) Predictions

Prediction of SNOs between AURA and NPP Satellite Orbit:

Table of predicted SNOs for the next 14.0 days since TLE Epoch: 11/22/2019
Index Date (AURA) Time (AURA) Lat,Lon (AURA) SZA (AURA ) Date (NPP) Time (NPP) Lat,Lon (NPP) SZA (NPP ) Distance(km) Time Diff (sec)
1 11/25/2019 11:24:59 -79.51, 85.61 67.83 11/25/2019 11:24:40 -79.51, 85.47 67.79 2.88 19
2 11/25/2019 12:14:17 79.81,-104.60 111.78 11/25/2019 12:15:15 79.81,-104.56 111.73 0.91 58
3 11/28/2019 02:52:05 79.38, 32.95 112.88 11/28/2019 02:50:52 79.38, 32.96 112.93 0.28 73
4 11/28/2019 03:41:25 -79.65,-157.52 67.49 11/28/2019 03:41:29 -79.66,-157.43 67.51 1.84 4
5 11/30/2019 19:08:33 79.44, 149.24 113.28 11/30/2019 19:07:44 79.44, 149.19 113.33 1.09 49
6 11/30/2019 19:57:53 -79.71, -41.19 67.09 11/30/2019 19:58:21 -79.72, -41.16 67.11 0.65 28
7 12/03/2019 11:25:00 79.50, -94.49 113.65 12/03/2019 11:24:35 79.50, -94.59 113.69 1.99 25
8 12/03/2019 12:14:20 -79.77, 75.11 66.72 12/03/2019 12:15:12 -79.77, 75.10 66.76 0.12 52
9 12/06/2019 03:41:27 79.59, 22.02 113.92 12/06/2019 03:41:26 79.58, 21.91 113.95 2.42 1




NCC Satellite Simultaneous Nadir Overpasses (SNOs) Prediction Service
